Regional Weather Roundup
Issued by NWS

Home | Current Version | Previous Version | Graphics & Text | Print | Product List | Glossary On
Versions: 1 2 3 4 5 6 7 8 9 10 11 12 13 14 15 16 17 18 19 20 21 22 23 24 25 26 27 28 29 30 31 32 33 34 35 36 37 38 39 40 41 42 43 44 45 46 47 48 49 50
000
ASUS43 KOAX 191810
RWRNE

WEATHER ROUNDUP FOR NEBRASKA
NATIONAL WEATHER SERVICE OMAHA NE
100 PM CDT SUN OCT 19 2014

NOTES: SATELLITE DATA IS BEING USED TO AUGMENT CLOUD COVER ABOVE
       12000 FEET.
       "FAIR" INDICATES FEW OR NO CLOUDS BELOW 12,000 FEET WITH NO
       SIGNIFICANT WEATHER AND/OR OBSTRUCTIONS TO VISIBILITY.

  * THESE STATIONS DO NOT REPORT WEATHER SUCH AS RAIN...SNOW OR FOG.

NEZ001>004-019>022-054>056-191900-
NEBRASKA PANHANDLE

CITY           SKY/WX    TMP DP  RH WIND       PRES   REMARKS
SCOTTSBLUFF    SUNNY     67  42  40 W7        30.10S
6HR MIN TEMP:  39; 6HR MAX TEMP:  67;

ALLIANCE       SUNNY     69  40  34 NE9       30.08S
6HR MIN TEMP:  33; 6HR MAX TEMP:  69;

CHADRON        SUNNY     66  42  41 E3        30.07F
6HR MIN TEMP:  36; 6HR MAX TEMP:  67;

KIMBALL        SUNNY     68  36  30 NE6       30.11S
SIDNEY         SUNNY     70  42  36 NE9       30.10R
6HR MIN TEMP:  36; 6HR MAX TEMP:  70;

$$

NEZ057>060-069>072-079>082-191900-
SOUTHWEST NEBRASKA

CITY           SKY/WX    TMP DP  RH WIND       PRES   REMARKS
NORTH PLATTE   SUNNY     62  45  53 VRB5      30.03F
6HR MIN TEMP:  40; 6HR MAX TEMP:  62;

IMPERIAL       SUNNY     69  44  40 NW8       30.04S
6HR MIN TEMP:  37; 6HR MAX TEMP:  69;

LEXINGTON      SUNNY     66  47  50 SW3       30.02S
MCCOOK         SUNNY     64  46  52 VRB3      30.03S
6HR MIN TEMP:  39; 6HR MAX TEMP:  64;

OGALLALA       SUNNY     70  45  40 N5        30.04F
$$

NEZ005>010-023>029-035>040-094-191900-
NORTH CENTRAL NEBRASKA

CITY           SKY/WX    TMP DP  RH WIND       PRES   REMARKS
VALENTINE      SUNNY     76  37  24 N9        30.00F
6HR MIN TEMP:  38; 6HR MAX TEMP:  76;

AINSWORTH      SUNNY     71  40  32 N6        30.01S
BROKEN BOW     SUNNY     67  46  47 W6        30.01S
6HR MIN TEMP:  44; 6HR MAX TEMP:  68;

O`NEILL        SUNNY     71  46  42 NW5       29.97F
ORD            SUNNY     65  46  50 W8        29.99F
6HR MIN TEMP:  38; 6HR MAX TEMP:  65;

THEDFORD       SUNNY     73  43  34 N8        30.03S
$$

NEZ041-046>049-061>064-073>077-083>087-191900-
SOUTH CENTRAL NEBRASKA

CITY           SKY/WX    TMP DP  RH WIND       PRES   REMARKS
GRAND ISLAND   SUNNY     69  47  45 SW13      30.02F
6HR MIN TEMP:  46; 6HR MAX TEMP:  69;

AURORA         SUNNY     68  42  40 SW14G20   30.01F
HASTINGS       SUNNY     66  42  41 SW12      30.02F
6HR MIN TEMP:  42; 6HR MAX TEMP:  66;

HEBRON         SUNNY     67  44  42 SW15      30.04F
HOLDREGE       SUNNY     64  46  52 SW3       30.02F
KEARNEY *      SUNNY     64  46  52 S13       30.03F
YORK           SUNNY     68  45  42 W16G23    30.02F
$$

NEZ011>018-030>034-042>045-191900-
NORTHEAST NEBRASKA

CITY           SKY/WX    TMP DP  RH WIND       PRES   REMARKS
NORFOLK        MOSUNNY   68  47  46 W13       29.97F
6HR MIN TEMP:  45; 6HR MAX TEMP:  68;

ALBION         SUNNY     66  46  47 W12       29.99F
BLAIR          PTSUNNY   66  45  45 S15G23    30.00F
COLUMBUS *     MOSUNNY   66  45  45 SW14      30.01F
FREMONT        MOSUNNY   67  45  45 SW8       30.00F
TEKAMAH        MOSUNNY   68  45  43 SW15G21   29.99F
6HR MIN TEMP:  42; 6HR MAX TEMP:  68;

WAYNE          MOSUNNY   67  46  46 SW13G20   29.97F
$$

NEZ050>053-065>068-078-088>093-191900-
SOUTHEAST NEBRASKA

CITY           SKY/WX    TMP DP  RH WIND       PRES   REMARKS
LINCOLN        SUNNY     68  45  43 SW16G26   30.03F
6HR MIN TEMP:  40; 6HR MAX TEMP:  68;

OMAHA EPPLEY   PTSUNNY   66  45  46 SW13      30.01F
6HR MIN TEMP:  43; 6HR MAX TEMP:  66;

BEATRICE       SUNNY     65  47  51 SW16      30.05S
FALLS CITY     SUNNY     65  48  54 S14       30.07F
6HR MIN TEMP:  38; 6HR MAX TEMP:  65;

NEBRASKA CITY  SUNNY     65  41  42 SW14      30.05F
PLATTSMOUTH    SUNNY     66  42  42 S15G21    30.04F
$$

NEZ044-045-051>053-067-191900-
OMAHA AREA

CITY           SKY/WX    TMP DP  RH WIND       PRES   REMARKS
OMAHA EPPLEY   PTSUNNY   66  45  46 SW13      30.01F
6HR MIN TEMP:  43; 6HR MAX TEMP:  66;

BLAIR          PTSUNNY   66  45  45 S15G23    30.00F
FREMONT        MOSUNNY   67  45  45 SW8       30.00F
MILLARD        MOSUNNY   67  47  47 SW10G17   30.01F
OFFUTT AFB     MOSUNNY   68  49  50 SW12      30.02F
PLATTSMOUTH    SUNNY     66  42  42 S15G21    30.04F
WAHOO          FAIR      67  42  40 SW16G23   30.00F
$$



USA.gov is the U.S. government's official web portal to all federal, state and local government web resources and services.